Simultaneous Nadir Overpasses (SNOs) Predictions

Prediction of SNOs between GOES-14 and NPP Satellite Orbit:

Table of predicted SNOs for the next 14.0 days since TLE Epoch: 4/10/2021
Index Date Time (GOES-14) GOES-14 Lat,Lon NPP Lat,Lon Distance(km) Time Diff (sec)
1 04/12/2021 08:23:13 0.15,-104.30 0.28,-104.94 72.48 80
2 04/13/2021 08:07:08 0.15,-104.31 -0.71,-100.40 444.73 80
3 04/14/2021 20:29:04 -0.15,-104.32 -0.45,-105.71 158.59 80
4 04/15/2021 20:07:39 -0.15,-104.31 0.54,-101.17 356.93 80
5 04/17/2021 08:29:26 0.15,-104.28 0.62,-106.44 245.77 80
6 04/18/2021 08:13:21 0.15,-104.28 -0.38,-101.90 271.25 80
7 04/19/2021 20:35:17 -0.15,-104.31 -0.78,-107.21 329.75 80
8 04/20/2021 20:13:51 -0.16,-104.30 0.21,-102.67 185.69 80
9 04/22/2021 08:35:38 0.16,-104.25 1.00,-107.93 419.89 80
10 04/23/2021 08:19:33 0.16,-104.25 -0.05,-103.40 97.17 80
